Location: Karcze
(52.0945°N, 22.4786°E)
Time: 01:13:29
(UTC+00:00)

Cosmos 1869 Rocket - Pass Details

Date: 14 July 2020
Orbit: 605 x 632 km, 82.5° (Epoch: 06 August)

Event Time Altitude Azimuth Distance (km) Brightness Sun altitude
Exits shadow 00:27:33 18° 195° (SSW) 1,491 4.9 -12.3°
Maximum altitude 00:30:43 79° 281° (WNW) 627 3.5 -12.1°
Drops below altitude 10° 00:35:05 10° 9° (N) 1,976 7.4 -11.8°
Sets 00:37:20 0° 10° (N) 2,889 8.6 -11.7°
